|   |  | Asteroid 2014 OV299
					
					
					
					
						
					
					
						
							(Preview) 
						
							
								The 14 - 31 metre wide asteroid 2014 OV299 will make a close pass (9.5 lunar distances, 0.0243 AU), travelling at 13.24 km/second, to the Earth-Moon system on the 6th August 2014 @ 20:03 UT ±00:42.  See more The Lunar Distance (LD), the distance between Earth and the Moon, equals 384,401 km, (or 0.0025...  | Blobrana | 0 |  |  | 
		
			
			
				
				
					|   |  | Asteroid 2014 MC6
					
					
					
					
						
					
					
						
							(Preview) 
						
							
								The 400 - 890 metre wide asteroid 2014 MC6 will make a close pass (75.0 lunar distances, 0.1928 AU), travelling at 13.44 km/second, to the Earth-Moon system on the 6th August 2014 @ 12:52 UT ±00:07.  See more The Lunar Distance (LD), the distance between Earth and the Moon, equals 384,401 km, (or 0.002...  | Blobrana | 0 |  |  | 
		
			
			
				
				
					|   |  | Asteroid 2014 OR338
					
					
					
					
						
					
					
						
							(Preview) 
						
							
								The 34 - 77 metre wide asteroid 2014 OR338 made a close pass (66.9 lunar distances, 0.1718 AU), travelling at 5.51 km/second, to the Earth-Moon system on the 1st August 2014 @ 04:39 UT ±00:33.  See more The Lunar Distance (LD), the distance between Earth and the Moon, equals 384,401 km, (or 0.00256 AU)... | Blobrana | 0 |  |  | 
		
			
			
				
				
					|   |  | Asteroid 2014 OM339
					
					
					
					
						
					
					
						
							(Preview) 
						
							
								Orbital elements:
2014 OM339                                          PHA, Earth MOID = 0.0183 AU
Epoch 2014 May 23.0 TT = JDT 2456800.5                  MPC
M 323.26566              (2000.0)            P               Q
n   0.24853520     Peri.   18.64173     +0.68248889     -0.73034542
a   2.5054022      Node    28.34108     +0.66275805     +0.60203613
e   0.6315109      Incl.    3.42535     +0.30815692     +0.32271981
P   3.97           H   21... | Blobrana | 0 |  |  | 
		
			
			
				
				
					|   |  | Asteroid 2008 EP7
					
					
					
					
						
					
					
						
							(Preview) 
						
							
								The 51 - 110 metre wide asteroid 2008 EP7 will make a close pass (51.2 lunar distances, 0.1316 AU), travelling at 10.88 km/second, to the Earth-Moon system on the 4th August 2014 @ 10:53 UT ±22:53.  See more The Lunar Distance (LD), the distance between Earth and the Moon, equals 384,401 km, (or 0.0025...  | Blobrana | 0 |  |  | 
		
			
			
				
				
					|   |  | Asteroid (1000) Piazzia
					
					
					
					
						
					
					
						
							(Preview) 
						
							
								Asteroid (1000) Piazzia is a main-belt asteroid, discovered on the 12th August 1923. It was the 1000th minor planet to be numbered, and was named in honour of Giuseppe Piazzi, who discovered the first asteroid, 1 Ceres. Read more | Blobrana | 1 |  |  | 
		
			
			
				
				
					|   |  | Asteroid (335433) 2005 UW163
					
					
					
					
						
					
					
						
							(Preview) 
						
							
								Title: A New Large Super-Fast Rotator: (335433) 2005 UW163  Author: Chan-Kao Chang, Adam Waszczak, Hsing-Wen Lin, Wing-Huen Ip, Thomas. A. Prince, Shrinivas R. Kulkarni, Russ Laher, Jason Surace   Asteroids of size larger than 150 m generally do not have rotation periods smaller than 2.2 hours. Th... | Blobrana | 0 |  |  | 
		
			
			
				
				
					|   |  | Asteroid 2014 MK27
					
					
					
					
						
					
					
						
							(Preview) 
						
							
								The 130 - 280 metre wide asteroid 2014 MK27 will make a close pass (52.0 lunar distances, 0.1335 AU), travelling at 10.49 km/second, to the Earth-Moon system on the 2nd August 2014 @ 06:15 UT ±00:01.  See more The Lunar Distance (LD), the distance between Earth and the Moon, equals 384,401 km, (or 0.00...  | Blobrana | 0 |  |  | 
		
			
			
				
				
					|   |  | Asteroid (154229) 2002 JN97
					
					
					
					
						
					
					
						
							(Preview) 
						
							
								The 1300 - 2800 metre wide asteroid 2002 JN97 will make a close pass (61.4 lunar distances, 0.1579 AU), travelling at 21.85 km/second, to the Earth-Moon system on the 2nd August 2014 @ 09:34 UT ±00:01.  See more The Lunar Distance (LD), the distance between Earth and the Moon, equals 384,401 km, (or 0....  | Blobrana | 0 |  |  | 
		
			
			
				
				
					|   |  | Asteroid (9357) Venezuela
					
					
					
					
						
					
					
						
							(Preview) 
						
							
								Asteroid (9357) Venezuela (1992 AT3) makes its closest approach to  the earth (1.837 AU) on the 1st August 2014  EphemerisDate       UT      R.A. (J2000) Decl.    Delta     r     El.    Ph.   Mag
2014 07 31 000000 20 32 34.3 -17 22 56   1.837   2.852  178.0   0.7  17.3
2014 08 01 000000 20 31 43.1 -17 25 53   1.837   2.851  177.1   1.0  17.4
2014 0... | Blobrana | 0 |  |  | 
		
			
			
				
				
					|   |  | Asteroid 2014 OG1
					
					
					
					
						
					
					
						
							(Preview) 
						
							
								The 130 - 280 metre wide asteroid 2014 OG1 will make a close pass (26.5 lunar distances, 0.0682 AU), travelling at 23.61 km/second, to the Earth-Moon system on the 1st August 2014 @ 15:21 UT ±00:01.  See more The Lunar Distance (LD), the distance between Earth and the Moon, equals 384,401 km, (or 0.002...  | Blobrana | 0 |  |  | 
		
			
			
				
				
					|   |  | Asteroid 2014 OM207
					
					
					
					
						
					
					
						
							(Preview) 
						
							
								Orbital elements:
2014 OM207                                               Earth MOID = 0.0009 AU
Epoch 2014 May 23.0 TT = JDT 2456800.5                  MPC
M 345.81836              (2000.0)            P               Q
n   0.26578201     Peri.  167.08930     +0.34172057     +0.93929210
a   2.3958098      Node   122.88467     -0.86549276     +0.32736183
e   0.5787798      Incl.    2.11159     -0.36626403     +0.10278414
P   3.71           H   28.9... | Blobrana | 0 |  |  | 
		
			
			
				
				
					|   |  | Asteroid 2014 MD6
					
					
					
					
						
					
					
						
							(Preview) 
						
							
								The 130 - 280 metre wide asteroid 2014 MD6 will make a close pass (29.1 lunar distances, 0.0748 AU), travelling at 7.18 km/second, to the Earth-Moon system on the 31st July 2014 @ 03:54 UT ±00:01.  See more The Lunar Distance (LD), the distance between Earth and the Moon, equals 384,401 km, (or 0.00256...  | Blobrana | 0 |  |  | 
		
			
			
				
				
					|   |  | Asteroid 2014 HF177
					
					
					
					
						
					
					
						
							(Preview) 
						
							
								The 310 - 680 metre wide asteroid 2014 HF177 will make a close pass (50.8 lunar distances, 0.1305 AU), travelling at 7.82 km/second, to the Earth-Moon system on the 30th July 2014 @ 06:37 UT ±00:01.  See more The Lunar Distance (LD), the distance between Earth and the Moon, equals 384,401 km, (or 0.002...  | Blobrana | 0 |  |  | 
		
			
			
				
				
					|   |  | Asteroid 2014 NE3
					
					
					
					
						
					
					
						
							(Preview) 
						
							
								Orbital elements:
2014 NE3                                            PHA, Earth MOID = 0.0285 AU
Epoch 2014 May 23.0 TT = JDT 2456800.5                  MPC
M 251.28097              (2000.0)            P               Q
n   0.76003833     Peri.  281.02231     +0.67267107     -0.64316547
a   1.1891749      Node   120.17827     +0.72704225     +0.66642115
e   0.3058420      Incl.   25.03794     -0.13756163     +0.37712204
P   1.30           H   2... | Blobrana | 1 |  |  |